Change the Weather History Date:

Wednesday, May 28, 2014

  Actual Average Record
Temperature  
Mean Temperature 62 °F 55 °F  
Max Temperature 75 °F 68 °F 100 °F (1919)
Min Temperature 48 °F 42 °F 27 °F (1947)
Degree Days  
Heating Degree Days 3 10  
Month to date heating degree days 377 389  
Since 1 July heating degree days 7761 7506  
Cooling Degree Days 0 0  
Month to date cooling degree days 0 0  
Year to date cooling degree days 0 1  
Growing Degree Days 10 (Base 50)    
Moisture  
Dew Point 50 °F    
Average Humidity 71    
Maximum Humidity 100    
Minimum Humidity 41    
Precipitation  
Precipitation 0.17 in 0.11 in 1.43 in (1990)
Month to date precipitation 1.54 2.09  
Year to date precipitation 7.03 5.40  
Snow  
Snow 0.00 in 0.10 in 4.70 in (1982)
Month to date snowfall 3.7 2.6  
Since 1 July snowfall 76.4 63.1  
Snow Depth 0.00 in    
Sea Level Pressure  
Sea Level Pressure 29.83 in    
Wind  
Wind Speed 9 mph (NNW)    
Max Wind Speed 25 mph    
Max Gust Speed 33 mph    
Visibility 9 miles    
Events Rain , Thunderstorm    
T = Trace of Precipitation, MM = Missing Value Source: NWS Daily Summary

Daily Weather History Graph

Daily Weather History Graph

Search for Another Location

Airport or City:

Trip Planner

Search our weather history database for the weather conditions in past years. The results will help you decide how hot, cold, wet, or windy it might be!

Date:

Astronomy

May. 28, 2014 Rise Set
Actual Time 5:35 AM MDT 9:11 PM MDT
Civil Twilight 4:56 AM MDT 9:49 PM MDT
Nautical Twilight 4:05 AM MDT 10:41 PM MDT
Astronomical Twilight 2:55 AM MDT 11:52 PM MDT
Moon 5:49 AM MDT (5/28) 9:08 PM MDT (5/28)
Length of Visible Light 16h 53m
Length of Day
15h 35m
Waning Crescent, 0% of the Moon is Illuminated
May 28
Waning Crescent
May 28
New
Jun 5
First Quarter
Jun 12
Full
Jun 19
Last Quarter

Hourly Weather History & Observations

Time (MDT) Temp. Dew Point Humidity Pressure Visibility Wind Dir Wind Speed Gust Speed Precip Events Conditions
12:53 AM 55.9 °F 52.0 °F 87% 29.90 in 10.0 mi East 12.7 mph - N/A   Clear
1:53 AM 55.0 °F 51.1 °F 86% 29.86 in 10.0 mi East 11.5 mph - N/A   Clear
2:53 AM 53.1 °F 50.0 °F 89% 29.85 in 10.0 mi East 8.1 mph - N/A   Clear
3:53 AM 53.1 °F 48.0 °F 83% 29.84 in 10.0 mi East 10.4 mph - N/A   Clear
4:53 AM 53.1 °F 48.0 °F 83% 29.83 in 10.0 mi ESE 9.2 mph - N/A   Clear
5:53 AM 50.0 °F 46.9 °F 89% 29.83 in 10.0 mi South 5.8 mph - N/A   Clear
6:44 AM 48.2 °F 48.2 °F 100% 29.89 in 2.5 mi SW 5.8 mph - N/A   Partly Cloudy
6:51 AM 48.2 °F 48.2 °F 100% 29.89 in 10.0 mi SW 5.8 mph - N/A   Scattered Clouds
6:53 AM 48.2 °F 48.2 °F 100% 29.89 in 10.0 mi SW 6.9 mph - N/A   Scattered Clouds
7:53 AM 51.1 °F 50.0 °F 96% 29.86 in 10.0 mi SW 5.8 mph - N/A   Partly Cloudy
8:53 AM 55.0 °F 50.0 °F 83% 29.85 in 10.0 mi West 8.1 mph - N/A   Scattered Clouds
9:53 AM 62.1 °F 51.1 °F 67% 29.84 in 10.0 mi WNW 10.4 mph - N/A   Scattered Clouds
10:14 AM 62.6 °F 51.8 °F 68% 29.89 in 10.0 mi NW 9.2 mph - N/A   Mostly Cloudy
10:53 AM 63.0 °F 50.0 °F 63% 29.86 in 10.0 mi NW 10.4 mph - N/A   Scattered Clouds
11:53 AM 66.2 °F 50.0 °F 56% 29.88 in 10.0 mi WNW 5.8 mph - N/A   Scattered Clouds
12:53 PM 68.0 °F 50.0 °F 52% 29.82 in 10.0 mi West 8.1 mph - N/A   Partly Cloudy
1:53 PM 70.0 °F 48.9 °F 47% 29.80 in 10.0 mi NNW 5.8 mph 16.1 mph N/A   Clear
2:53 PM 72.0 °F 48.9 °F 44% 29.78 in 10.0 mi NW 8.1 mph - N/A   Clear
3:53 PM 73.4 °F 48.2 °F 41% 29.81 in 10.0 mi North 8.1 mph - N/A   Clear
4:53 PM 68.0 °F 46.4 °F 46% 29.76 in 10.0 mi North 13.8 mph - N/A   Overcast
5:00 PM 66.2 °F 46.4 °F 49% 29.77 in 10.0 mi NW 11.5 mph - N/A Thunderstorm Overcast
5:12 PM 60.8 °F 50.0 °F 68% 29.84 in 1.5 mi NW 23.0 mph 33.4 mph 0.00 in Rain , Thunderstorm Light Thunderstorms and Rain
5:14 PM 53.6 °F 50.0 °F 88% 29.77 in 1.2 mi North 24.2 mph 33.4 mph 0.00 in Rain , Thunderstorm Thunderstorms and Rain
5:22 PM 55.4 °F 50.0 °F 82% 29.80 in 3.0 mi NW 12.7 mph - 0.15 in Rain , Thunderstorm Light Thunderstorms and Rain
5:48 PM 62.6 °F 53.6 °F 72% 29.80 in 10.0 mi NNE 11.5 mph - 0.17 in Rain Light Rain
5:53 PM 61.0 °F 53.1 °F 75% 29.77 in 10.0 mi NNE 11.5 mph - 0.17 in   Scattered Clouds
6:53 PM 66.0 °F 55.0 °F 68% 29.77 in 10.0 mi NNE 5.8 mph - N/A   Clear
7:53 PM 64.9 °F 54.0 °F 68% 29.75 in 10.0 mi NNE 9.2 mph - N/A   Clear
8:53 PM 61.0 °F 53.1 °F 75% 29.79 in 10.0 mi NNW 8.1 mph - N/A   Scattered Clouds
9:53 PM 59.0 °F 50.0 °F 72% 29.79 in 10.0 mi NNW 11.5 mph - N/A   Overcast
10:53 PM 57.0 °F 46.0 °F 67% 29.83 in 10.0 mi NNW 13.8 mph - N/A   Overcast
11:53 PM 55.4 °F 44.6 °F 67% 29.89 in 10.0 mi WNW 6.9 mph - N/A   Overcast